| time (UTC) | temp C | wind direction | speed KPH | gust KPH | rain 1hr cm | rain 24hr cm | rain mn cm | humidity % | barometer mb |
| 20260508091224 | 0 | 274 | 1.6 | 3.2 | 0.03 | 0.48 | 0.08 | 97 | 999.8 |
| 20260508085203 | 0 | 274 | 0.0 | 4.8 | 0.00 | 0.51 | 0.05 | 96 | 999.8 |
| 20260508084203 | 0 | 275 | 0.0 | 0.0 | 0.00 | 0.51 | 0.05 | 95 | 999.7 |
| 20260508083203 | 0 | 275 | 0.0 | 3.2 | 0.00 | 0.51 | 0.05 | 95 | 999.7 |
| 20260508082204 | 0 | 274 | 0.0 | 3.2 | 0.00 | 0.53 | 0.05 | 94 | 999.8 |
| 20260508081203 | 0 | 275 | 0.0 | 1.6 | 0.00 | 0.56 | 0.05 | 93 | 999.8 |
| 20260508080203 | 0 | 275 | 0.0 | 0.0 | 0.00 | 0.56 | 0.05 | 92 | 999.8 |
| 20260508075203 | 0 | 275 | 0.0 | 0.0 | 0.00 | 0.56 | 0.05 | 91 | 999.8 |
| 20260508074203 | 0 | 275 | 0.0 | 0.0 | 0.00 | 0.58 | 0.05 | 91 | 999.6 |
| 20260508072225 | 0 | 275 | 0.0 | 0.0 | 0.00 | 0.61 | 0.05 | 90 | 999.7 |
| 20260508071203 | 0 | 275 | 0.0 | 0.0 | 0.00 | 0.64 | 0.05 | 89 | 999.6 |
| 20260508070204 | 0 | 275 | 0.0 | 3.2 | 0.00 | 0.64 | 0.05 | 90 | 999.6 |
| 20260508065203 | 0 | 275 | 0.0 | 4.8 | 0.03 | 0.66 | 0.05 | 90 | 999.6 |
| 20260508064203 | 1 | 275 | 0.0 | 4.8 | 0.03 | 0.66 | 0.05 | 91 | 999.6 |
| 20260508063203 | 1 | 275 | 0.0 | 0.0 | 0.03 | 0.69 | 0.05 | 92 | 999.6 |
| 20260508062203 | 1 | 274 | 0.0 | 6.4 | 0.00 | 0.69 | 0.03 | 93 | 999.6 |
| 20260508061202 | 1 | 278 | 1.6 | 9.7 | 0.00 | 0.69 | 0.03 | 94 | 999.6 |
| 20260508060203 | 0 | 289 | 0.0 | 6.4 | 0.00 | 0.71 | 0.03 | 93 | 999.6 |
| 20260508055203 | 0 | 288 | 1.6 | 9.7 | 0.00 | 0.69 | 0.00 | 92 | 999.7 |
| 20260508054204 | 0 | 285 | 0.0 | 8.0 | 0.00 | 0.71 | 0.00 | 92 | 1000.1 |
| 20260508053203 | 0 | 286 | 0.0 | 8.0 | 0.00 | 0.74 | 0.00 | 92 | 1000.1 |
| 20260508052204 | 0 | 286 | 0.0 | 8.0 | 0.00 | 0.74 | 0.00 | 92 | 1000.1 |
| 20260508050203 | 0 | 286 | 1.6 | 6.4 | 0.00 | 0.76 | 0.00 | 91 | 1000.0 |
| 20260508044203 | 1 | 286 | 1.6 | 8.0 | 0.00 | 0.81 | 0.00 | 92 | 1000.2 |
| 20260508043203 | 1 | 286 | 1.6 | 9.7 | 0.00 | 0.81 | 0.00 | 92 | 1000.2 |
| 20260508042203 | 0 | 302 | 0.0 | 4.8 | 0.00 | 0.84 | 0.00 | 91 | 1000.1 |
| 20260508041203 | 1 | 303 | 0.0 | 0.0 | 0.00 | 0.86 | 0.00 | 89 | 1000.4 |
| 20260508035225 | 1 | 303 | 0.0 | 0.0 | 0.03 | 0.86 | 0.86 | 87 | 1000.5 |
| 20260508034203 | 1 | 303 | 0.0 | 0.0 | 0.03 | 0.86 | 0.86 | 87 | 1000.5 |
| 20260508033203 | 1 | 303 | 0.0 | 0.0 | 0.03 | 0.89 | 0.86 | 87 | 1000.5 |
| 20260508032225 | 1 | 303 | 0.0 | 0.0 | 0.00 | 0.86 | 0.84 | 87 | 1000.4 |
| 20260508031203 | 2 | 303 | 0.0 | 0.0 | 0.00 | 0.89 | 0.84 | 87 | 1000.6 |
| 20260508030203 | 2 | 303 | 0.0 | 0.0 | 0.00 | 0.91 | 0.84 | 87 | 1000.6 |
| 20260508025203 | 2 | 302 | 0.0 | 1.6 | 0.00 | 0.91 | 0.84 | 86 | 1000.6 |
| 20260508024224 | 2 | 303 | 0.0 | 0.0 | 0.00 | 0.94 | 0.84 | 86 | 1000.7 |
| 20260508023223 | 2 | 303 | 0.0 | 3.2 | 0.00 | 0.97 | 0.84 | 85 | 1000.7 |
| 20260508022203 | 3 | 303 | 0.0 | 0.0 | 0.00 | 0.97 | 0.84 | 82 | 1000.7 |
| 20260508021204 | 3 | 303 | 0.0 | 0.0 | 0.00 | 0.99 | 0.84 | 82 | 1000.8 |
| 20260508020205 | 3 | 303 | 0.0 | 0.0 | 0.00 | 1.02 | 0.84 | 82 | 1000.8 |
| 20260508014204 | 4 | 303 | 0.0 | 0.0 | 0.00 | 1.02 | 0.81 | 82 | 1000.7 |
| 20260508013226 | 5 | 303 | 0.0 | 0.0 | 0.00 | 1.04 | 0.81 | 81 | 1000.7 |
| 20260508012205 | 5 | 303 | 0.0 | 3.2 | 0.00 | 1.04 | 0.81 | 80 | 1000.5 |
| 20260508011204 | 5 | 303 | 0.0 | 4.8 | 0.00 | 1.07 | 0.81 | 78 | 1000.6 |
| 20260508010205 | 6 | 303 | 0.0 | 4.8 | 0.00 | 1.09 | 0.81 | 76 | 1000.6 |
| 20260508005204 | 6 | 303 | 0.0 | 0.0 | 0.00 | 1.09 | 0.81 | 75 | 1000.6 |
| 20260508004205 | 7 | 303 | 0.0 | 0.0 | 0.00 | 1.14 | 0.81 | 73 | 1000.5 |
| 20260508002226 | 8 | 303 | 0.0 | 4.8 | 0.00 | 1.17 | 0.81 | 69 | 1000.1 |
| 20260508001204 | 8 | 302 | 3.2 | 6.4 | 0.00 | 1.19 | 0.81 | 67 | 1000.0 |
| 20260508000205 | 9 | 302 | 1.6 | 14.5 | 0.00 | 1.22 | 0.81 | 64 | 1000.0 |
| 20260507235203 | 10 | 267 | 3.2 | 16.1 | 0.03 | 1.24 | 0.81 | 63 | 999.7 |
| 20260507234204 | 10 | 260 | 3.2 | 17.7 | 0.03 | 1.27 | 0.81 | 63 | 999.5 |
| 20260507233203 | 10 | 270 | 4.8 | 11.3 | 0.03 | 1.30 | 0.81 | 66 | 999.5 |
| 20260507232204 | 10 | 312 | 0.0 | 8.0 | 0.03 | 1.32 | 0.81 | 66 | 999.5 |
| 20260507231204 | 10 | 317 | 3.2 | 9.7 | 0.00 | 1.32 | 0.79 | 65 | 999.4 |
| 20260507230224 | 10 | 294 | 3.2 | 17.7 | 0.00 | 1.35 | 0.79 | 65 | 999.4 |
| 20260507225203 | 10 | 285 | 1.6 | 9.7 | 0.03 | 1.37 | 0.79 | 64 | 999.4 |
| 20260507224203 | 10 | 264 | 4.8 | 24.1 | 0.03 | 1.40 | 0.79 | 63 | 999.3 |
| 20260507223224 | 11 | 252 | 8.0 | 17.7 | 0.03 | 1.42 | 0.79 | 63 | 999.3 |
| 20260507222224 | 11 | 235 | 6.4 | 17.7 | 0.03 | 1.45 | 0.79 | 63 | 999.1 |
| 20260507221203 | 11 | 280 | 9.7 | 20.9 | 0.00 | 1.45 | 0.76 | 63 | 999.0 |
| 20260507215204 | 11 | 230 | 4.8 | 24.1 | 0.00 | 1.50 | 0.76 | 63 | 998.9 |
| 20260507214204 | 11 | 260 | 3.2 | 29.0 | 0.00 | 1.55 | 0.76 | 62 | 998.8 |
| 20260507213205 | 12 | 260 | 16.1 | 33.8 | 0.00 | 1.57 | 0.76 | 61 | 998.8 |
| 20260507212225 | 12 | 276 | 8.0 | 27.4 | 0.00 | 1.60 | 0.76 | 60 | 998.4 |
| 20260507211204 | 12 | 253 | 1.6 | 14.5 | 0.00 | 1.63 | 0.76 | 59 | 998.4 |
| 20260507210203 | 12 | 248 | 4.8 | 17.7 | 0.00 | 1.68 | 0.76 | 56 | 998.4 |
| 20260507205204 | 13 | 270 | 6.4 | 17.7 | 0.03 | 1.70 | 0.76 | 55 | 998.2 |
| 20260507204203 | 13 | 234 | 0.0 | 9.7 | 0.03 | 1.73 | 0.76 | 54 | 998.0 |
| 20260507203204 | 13 | 275 | 4.8 | 19.3 | 0.03 | 1.75 | 0.76 | 51 | 998.0 |
| 20260507202203 | 13 | 253 | 9.7 | 19.3 | 0.00 | 1.78 | 0.74 | 50 | 997.9 |
| 20260507201203 | 13 | 270 | 8.0 | 17.7 | 0.00 | 1.80 | 0.74 | 53 | 997.9 |
| 20260507200203 | 13 | 271 | 9.7 | 19.3 | 0.00 | 1.83 | 0.74 | 52 | 997.9 |
| 20260507195203 | 13 | 284 | 6.4 | 22.5 | 0.03 | 1.88 | 0.74 | 58 | 997.9 |
| 20260507194203 | 13 | 321 | 9.7 | 38.6 | 0.00 | 1.88 | 0.71 | 54 | 997.9 |
| 20260507193224 | 15 | 288 | 14.5 | 32.2 | 0.00 | 1.91 | 0.71 | 50 | 997.9 |
| 20260507192202 | 15 | 217 | 8.0 | 17.7 | 0.00 | 1.93 | 0.71 | 44 | 997.7 |
| 20260507191203 | 15 | 289 | 6.4 | 19.3 | 0.00 | 1.96 | 0.71 | 45 | 997.7 |
| 20260507185705 | 14 | 315 | 1.6 | 17.7 | 0.05 | 1.98 | 0.71 | 46 | 997.7 |
| 20260507184704 | 14 | 241 | 1.6 | 12.9 | 0.05 | 2.01 | 0.71 | 47 | 997.7 |
| 20260507183705 | 14 | 251 | 4.8 | 25.7 | 0.03 | 2.01 | 0.69 | 46 | 997.9 |
| 20260507182704 | 15 | 252 | 8.0 | 20.9 | 0.03 | 2.01 | 0.69 | 45 | 998.2 |
| 20260507181704 | 15 | 268 | 4.8 | 16.1 | 0.03 | 2.03 | 0.69 | 45 | 998.2 |
| 20260507180704 | 15 | 250 | 0.0 | 22.5 | 0.00 | 2.03 | 0.66 | 49 | 998.2 |
| 20260507175704 | 15 | 220 | 11.3 | 19.3 | 0.03 | 2.06 | 0.66 | 44 | 998.3 |
| 20260507174703 | 15 | 279 | 0.0 | 9.7 | 0.03 | 2.08 | 0.66 | 47 | 998.3 |
| 20260507173704 | 15 | 357 | 4.8 | 16.1 | 0.03 | 2.11 | 0.66 | 48 | 998.3 |
| 20260507172703 | 14 | 262 | 4.8 | 17.7 | 0.03 | 2.11 | 0.66 | 51 | 998.6 |
| 20260507171704 | 14 | 335 | 1.6 | 12.9 | 0.03 | 2.13 | 0.66 | 54 | 998.6 |
| 20260507170703 | 14 | 284 | 0.0 | 9.7 | 0.00 | 2.13 | 0.64 | 50 | 998.7 |
| 20260507165724 | 14 | 237 | 8.0 | 20.9 | 0.03 | 2.16 | 0.64 | 50 | 998.8 |
| 20260507164703 | 13 | 293 | 1.6 | 14.5 | 0.00 | 2.13 | 0.61 | 53 | 998.8 |
| 20260507163703 | 13 | 265 | 3.2 | 14.5 | 0.00 | 2.13 | 0.61 | 55 | 998.8 |
| 20260507162703 | 13 | 319 | 3.2 | 16.1 | 0.00 | 2.13 | 0.61 | 58 | 998.8 |
| 20260507161703 | 13 | 293 | 3.2 | 19.3 | 0.00 | 2.13 | 0.61 | 59 | 998.8 |
| 20260507160703 | 13 | 280 | 0.0 | 19.3 | 0.00 | 2.13 | 0.61 | 65 | 999.2 |
| 20260507155205 | 13 | 296 | 4.8 | 19.3 | 0.00 | 2.13 | 0.61 | 59 | 999.4 |
| 20260507154205 | 13 | 229 | 6.4 | 17.7 | 0.00 | 2.13 | 0.61 | 64 | 999.4 |
| 20260507153205 | 12 | 303 | 3.2 | 16.1 | 0.00 | 2.13 | 0.61 | 68 | 999.4 |
| 20260507152204 | 12 | 331 | 4.8 | 12.9 | 0.00 | 2.13 | 0.61 | 71 | 999.5 |
| 20260507151226 | 11 | 358 | 6.4 | 14.5 | 0.00 | 2.13 | 0.61 | 70 | 999.6 |
| 20260507150225 | 11 | 281 | 3.2 | 16.1 | 0.00 | 2.13 | 0.61 | 73 | 999.6 |
| 20260507145204 | 11 | 341 | 1.6 | 16.1 | 0.00 | 2.13 | 0.61 | 76 | 999.9 |
| 20260507144204 | 10 | 289 | 6.4 | 14.5 | 0.00 | 2.13 | 0.61 | 76 | 999.9 |
| 20260507143204 | 10 | 23 | 3.2 | 14.5 | 0.00 | 2.13 | 0.61 | 83 | 999.9 |
| 20260507142203 | 9 | 309 | 6.4 | 14.5 | 0.00 | 2.13 | 0.61 | 82 | 1000.3 |
| 20260507141225 | 8 | 249 | 6.4 | 19.3 | 0.00 | 2.13 | 0.61 | 83 | 1000.1 |
| 20260507140203 | 8 | 252 | 3.2 | 11.3 | 0.00 | 2.13 | 0.61 | 84 | 1000.1 |
| 20260507135204 | 8 | 231 | 6.4 | 14.5 | 0.00 | 2.13 | 0.61 | 82 | 1000.4 |
| 20260507134225 | 8 | 287 | 4.8 | 14.5 | 0.00 | 2.13 | 0.61 | 82 | 1000.3 |
| 20260507133225 | 8 | 310 | 4.8 | 14.5 | 0.00 | 2.13 | 0.61 | 84 | 1000.3 |
| 20260507132204 | 8 | 283 | 4.8 | 11.3 | 0.00 | 2.13 | 0.61 | 85 | 1000.3 |
| 20260507131203 | 8 | 295 | 1.6 | 16.1 | 0.00 | 2.13 | 0.61 | 84 | 1000.2 |
| 20260507130204 | 8 | 307 | 3.2 | 11.3 | 0.00 | 2.13 | 0.61 | 88 | 1000.2 |
| 20260507125203 | 8 | 339 | 3.2 | 11.3 | 0.00 | 2.13 | 0.61 | 87 | 1000.5 |
| 20260507124203 | 8 | 282 | 4.8 | 9.7 | 0.00 | 2.13 | 0.61 | 89 | 1000.5 |
| 20260507123203 | 7 | 301 | 6.4 | 16.1 | 0.00 | 2.13 | 0.61 | 90 | 1000.5 |
| 20260507122203 | 7 | 260 | 1.6 | 16.1 | 0.00 | 2.13 | 0.61 | 95 | 1000.4 |
| 20260507121202 | 7 | 289 | 4.8 | 14.5 | 0.00 | 2.13 | 0.61 | 95 | 1000.3 |
| 20260507120203 | 7 | 275 | 9.7 | 17.7 | 0.00 | 2.13 | 0.61 | 96 | 1000.3 |
| 20260507115203 | 6 | 295 | 4.8 | 11.3 | 0.05 | 2.13 | 0.61 | 95 | 1000.5 |
| 20260507114205 | 6 | 276 | 3.2 | 9.7 | 0.05 | 2.13 | 0.61 | 95 | 1000.5 |
| 20260507113205 | 6 | 233 | 3.2 | 9.7 | 0.03 | 2.11 | 0.58 | 95 | 1000.5 |
| 20260507112204 | 6 | 267 | 1.6 | 9.7 | 0.03 | 2.11 | 0.58 | 96 | 1000.5 |
| 20260507111205 | 6 | 286 | 3.2 | 14.5 | 0.00 | 2.08 | 0.56 | 96 | 1000.1 |
| 20260507105247 | 6 | 286 | 4.8 | 12.9 | 0.05 | 2.08 | 0.56 | 96 | 1000.3 |
| 20260507104205 | 6 | 279 | 4.8 | 9.7 | 0.03 | 2.06 | 0.53 | 96 | 1000.0 |
| 20260507103246 | 5 | 311 | 1.6 | 16.1 | 0.03 | 2.06 | 0.53 | 95 | 1000.0 |
| 20260507102205 | 5 | 276 | 1.6 | 9.7 | 0.00 | 2.03 | 0.51 | 95 | 999.9 |
| 20260507101204 | 5 | 286 | 1.6 | 6.4 | 0.00 | 2.03 | 0.51 | 95 | 1000.0 |
| 20260507100204 | 5 | 278 | 3.2 | 11.3 | 0.00 | 2.06 | 0.51 | 95 | 1000.0 |
| 20260507095204 | 6 | 278 | 4.8 | 12.9 | 0.05 | 2.03 | 0.48 | 95 | 999.5 |
| 20260507094204 | 6 | 273 | 0.0 | 9.7 | 0.05 | 2.03 | 0.48 | 94 | 999.7 |
| 20260507093204 | 6 | 284 | 1.6 | 6.4 | 0.03 | 2.03 | 0.46 | 94 | 999.7 |
| 20260507092204 | 6 | 281 | 4.8 | 11.3 | 0.03 | 2.06 | 0.46 | 94 | 999.9 |